San Carlos, CA

10:38 PM PDT on May 26, 2017 (GMT -0700)
San Carlos

Weather History for KSQL - December, 2013

Change the Weather History Date:

Saturday, December 28, 2013

  Actual Average Record
Temperature  
Mean Temperature 50 °F -  
Max Temperature 64 °F 57 °F 74 °F (1967)
Min Temperature 37 °F 39 °F 29 °F (1962)
Degree Days  
Heating Degree Days 14    
Moisture  
Dew Point 36 °F    
Average Humidity 75    
Maximum Humidity 93    
Minimum Humidity 24    
Precipitation  
Precipitation 0.00 in - - ()
Sea Level Pressure  
Sea Level Pressure 30.11 in    
Wind  
Wind Speed 0 mph (NNE)    
Max Wind Speed 7 mph    
Max Gust Speed -    
Visibility 9 miles    
Events      
Averages and records for this station are not official NWS values.
T = Trace of Precipitation, MM = Missing Value Source: NWS Daily Summary

Daily Weather History Graph

Daily Weather History Graph

Search for Another Location

Airport or City:

Trip Planner

Search our weather history database for the weather conditions in past years. The results will help you decide how hot, cold, wet, or windy it might be!

Date:

Astronomy

Dec. 28, 2013 Rise Set
Actual Time 7:22 AM PST 4:58 PM PST
Civil Twilight 6:53 AM PST 5:28 PM PST
Nautical Twilight 6:20 AM PST 6:00 PM PST
Astronomical Twilight 5:49 AM PST 6:32 PM PST
Moon 3:08 AM PST (12/28) 1:51 PM PST (12/28)
Length of Visible Light 10h 34m
Length of Day
9h 35m
Waning Crescent, 18% of the Moon is Illuminated
Dec 28
Waning Crescent
Jan 1
New
Jan 7
First Quarter
Jan 15
Full
Jan 23
Last Quarter

Hourly Weather History & Observations

Time (PST) Temp. Windchill Dew Point Humidity Pressure Visibility Wind Dir Wind Speed Gust Speed Precip Events Conditions
12:15 AM 44.6 °F - 39.2 °F 81% 30.13 in 8.0 mi Calm Calm - N/A   Clear
12:35 AM 42.8 °F - 37.4 °F 81% 30.13 in 7.0 mi Calm Calm - N/A   Clear
12:55 AM 42.8 °F - 37.4 °F 81% 30.13 in 7.0 mi Calm Calm - N/A   Clear
1:15 AM 41.0 °F - 37.4 °F 87% 30.13 in 7.0 mi Calm Calm - N/A   Clear
1:35 AM 41.0 °F 39.0 °F 37.4 °F 87% 30.12 in 7.0 mi SW 3.5 mph - N/A   Clear
1:55 AM 41.0 °F - 37.4 °F 87% 30.13 in 7.0 mi Calm Calm - N/A   Clear
2:15 AM 41.0 °F - 37.4 °F 87% 30.14 in 8.0 mi Calm Calm - N/A   Clear
2:35 AM 41.0 °F - 37.4 °F 87% 30.14 in 7.0 mi Calm Calm - N/A   Clear
2:55 AM 41.0 °F - 37.4 °F 87% 30.14 in 8.0 mi Calm Calm - N/A   Clear
3:15 AM 41.0 °F - 37.4 °F 87% 30.13 in 8.0 mi Calm Calm - N/A   Clear
3:35 AM 39.2 °F - 37.4 °F 93% 30.14 in 6.0 mi Calm Calm - N/A   Clear
3:55 AM 39.2 °F - 35.6 °F 87% 30.14 in 7.0 mi Calm Calm - N/A   Clear
4:15 AM 39.2 °F - 37.4 °F 93% 30.13 in 7.0 mi Calm Calm - N/A   Clear
4:35 AM 39.2 °F - 37.4 °F 93% 30.13 in 7.0 mi Calm Calm - N/A   Clear
4:55 AM 39.2 °F - 37.4 °F 93% 30.13 in 7.0 mi Calm Calm - N/A   Clear
5:15 AM 39.2 °F - 37.4 °F 93% 30.13 in 7.0 mi Calm Calm - N/A   Clear
5:35 AM 39.2 °F - 37.4 °F 93% 30.13 in 7.0 mi Calm Calm - N/A   Clear
5:55 AM 39.2 °F - 37.4 °F 93% 30.13 in 8.0 mi Calm Calm - N/A   Clear
6:15 AM 39.2 °F - 37.4 °F 93% 30.13 in 8.0 mi Calm Calm - N/A   Clear
6:35 AM 37.4 °F - 35.6 °F 93% 30.13 in 7.0 mi Calm Calm - N/A   Clear
6:47 AM 39.2 °F - 35.6 °F 87% 30.14 in 10.0 mi Calm Calm - N/A   Clear
6:55 AM 39.2 °F - 37.4 °F 93% 30.14 in 8.0 mi Calm Calm - N/A   Clear
7:55 AM 39.2 °F - 37.4 °F 93% 30.15 in 10.0 mi Calm Calm - N/A   Clear
8:50 AM 44.6 °F - 39.2 °F 81% 30.16 in 10.0 mi Calm Calm - N/A   Clear
9:55 AM 48.2 °F - 44.6 °F 87% 30.16 in 10.0 mi Calm Calm - N/A   Clear
10:47 AM 51.8 °F - 42.8 °F 71% 30.15 in 10.0 mi ENE 3.5 mph - N/A   Clear
11:55 AM 53.6 °F - 46.4 °F 77% 30.11 in 10.0 mi ENE 4.6 mph - N/A   Clear
12:48 PM 57.2 °F - 46.4 °F 67% 30.08 in 10.0 mi Calm Calm - N/A   Clear
1:50 PM 57.2 °F - 48.2 °F 72% 30.06 in 10.0 mi NE 3.5 mph - N/A   Clear
2:47 PM - - - N/A% 30.05 in 10.0 mi WNW 6.9 mph - N/A   Clear
3:58 PM 64.4 °F - 26.6 °F 24% 30.05 in 10.0 mi Calm Calm - N/A   Clear
4:48 PM 62.6 °F - 28.4 °F 27% 30.04 in 10.0 mi NNW 3.5 mph - N/A   Clear
5:55 PM 55.4 °F - 32.0 °F 41% 30.05 in 10.0 mi Calm Calm - N/A   Clear
6:55 PM 51.8 °F - 32.0 °F 47% 30.06 in 10.0 mi Calm Calm - N/A   Clear
7:50 PM 48.2 °F - 39.2 °F 71% 30.08 in 10.0 mi Calm Calm - N/A   Clear
8:50 PM 48.2 °F - 32.0 °F 54% 30.08 in 10.0 mi Calm Calm - N/A   Clear
9:15 PM 48.2 °F - 32.0 °F 54% 30.09 in 10.0 mi Calm Calm - N/A   Clear
9:35 PM 48.2 °F - 32.0 °F 54% 30.09 in 10.0 mi Calm Calm - N/A   Clear
9:55 PM 46.4 °F - 32.0 °F 57% 30.09 in 10.0 mi Calm Calm - N/A   Clear
10:15 PM 46.4 °F - 32.0 °F 57% 30.10 in 10.0 mi Calm Calm - N/A   Clear
10:35 PM 46.4 °F - 32.0 °F 57% 30.10 in 10.0 mi Calm Calm - N/A   Clear
10:55 PM 44.6 °F - 32.0 °F 61% 30.10 in 10.0 mi Calm Calm - N/A   Clear
11:15 PM 44.6 °F - 32.0 °F 61% 30.10 in 10.0 mi Calm Calm - N/A   Clear
11:35 PM 44.6 °F - 32.0 °F 61% 30.10 in 10.0 mi Calm Calm - N/A   Clear
11:55 PM 44.6 °F - 32.0 °F 61% 30.10 in 10.0 mi Calm Calm - N/A   Clear